Погода Шарья

Погода Шарья : погода сейчас, прогноз погоды и архив. Всё, что Вы хотите узнать о погоде Шарья!

Хотите узнать прогноз погоды Шарья? Тогда Вам сюда: Погода Шарья

Поиск расширенной информации на нашем сайте:

Другие новости

Новости СМИ2

Главная страница сайта

Новости сайта

03.07.2017

Напоминаем, что на нашем специализированном сайте Метеоцентр.Азия вы можете получить высокодетализированные автоматические прогнозы погоды по пунктам России, СНГ и мира в авиационном формате (включающие направление и скорость ветра, видимость, явления погоды, количество и форму облачности, нижнюю и верхнюю границу облачности).

Рекомендуем: Чемпионат техника выполнения упражнений по бодибилдингу.

Погода Шарья - сегодня

Время (UTC), дата Ветер
(°,м/с) 
Видим.   Явления Облачность Т
(°С)
Тd
(°С)
f(%) Тe
(°С)
Pmin
(гПа)
dP
(гПа)
Po
(мм)
O2
(г/м3)
Тmin Tmax R s Состояние
почвы
00 18.08.17 150 (ЮВ) 10 км    10/0 средняя 
[Ac und]
+12.8 +11.4 91 +17  1028.3  -0.2  760  290           
03 18.08.17 тихо ()   10 км    9/9 600 м 
[Sc]
+13.5 +11.7 89 +17  1028.5  0.3  760  290  +10.6        влажная 
06 18.08.17 190 (Ю) 20000 м    3/0 средняя 
[Ac trans]
+20 +12.3 61 +24  1028  -0.2  760  283  +10.6         
09 18.08.17 170 (Ю) 20000 м    8/6 1000 м средняя 
[Cu Sc|Ac trans]
+21.9 +9.1 44 +22  1027.4  -0.6  760  282           
12 18.08.17 210 (ЮЗ) 20000 м    4/3 1500 м средняя 
[Cu Sc|Ac trans]
+22.3 +9 43 +22  1026  -1.3  759  281           
15 18.08.17 170 (Ю) 20000 м    6/0 средняя 
[Ac trans]
+20.6 +11.7 57 +24  1024.9  -1.2  758  282    +24.3       
18 18.08.17 140 (ЮВ) 10 км    1/0 средняя 
[Ac trans]
+12.5 +11.4 93 +17  1025.1  -0.1  758  290           
21 18.08.17 тихо ()   10 км    ясно 
+9.6 +8.8 95 +10  1025  -0.3  757  293           
00 19.08.17 150 (ЮВ) 10 км    8/0 средняя, верхняя 
[Ac trans|Ci sp]
+11 +10.3 95 +13  1024  -0.9  757  291           
03 19.08.17 тихо ()   10 км    10/0 средняя 
[Ac und]
+14.3 +12.4 88 +19  1023.8  757  287  +8.3        влажная 
06 19.08.17 170 (Ю) 4000 м  слаб. ливневой дождь  10/3 600 м кучево-дожд., средняя 
[Cb cap|As op]
+14.7 +13.4 92 +21  1023.8  757  287  +8.3         
09 19.08.17 180 (Ю) 10 км  {ливн. осадки}  10/1 600 м кучево-дожд., средняя, верхняя 
[Cb cap|Ac trans|Ci fib]
+20.2 +15.9 76 +30  1022.7  -0.8  756  280           
12 19.08.17 190 (Ю) 10 км  в посл. час ливневой дождь  10/6 600 м кучево-дожд., средняя 
[Cb cap|As trans]
+23 +16.6 67 +34  1022.1  -0.5  756  277           
15 19.08.17 180 (Ю) 10 км    10/1 600 м кучево-дожд., средняя, верхняя 
[Cb cap|Ac trans|Ci fib]
+22.6 +17.2 72 +35  1021.1  -1  755  277    +23.9     
18 19.08.17 180 (Ю) 10 км    8/0 верхняя 
[Ci fib]
+19.1 +15.9 82 +30  1021.4  0.1  755  281           
21 19.08.17 170 (Ю) 10 км    ясно 
+17.8 +15.4 86 +28  1021.6  0.1  755  282           
00 20.08.17 170 (Ю) 10 км    5/0 средняя 
[Ac trans]
+16.2 +14.9 92 +26  1022.1  0.4  755  284           
03 20.08.17 140 (ЮВ) 4000 м  дымка  10/0 верхняя 
[Ci fib]
+15 +14 94 +23  1021.9  -0.2  755  286  +14.8        влажная 
06 20.08.17 210 (ЮЗ) 10 км    8/0 верхняя 
[Ci fib]
+21.7 +15.6 68 +31  1021.6  755  279  +14.8         
09 20.08.17 220 (ЮЗ) 20000 м    1/0 верхняя 
[Ci fib]
+26.2 +17.1 57 +39  1021.2  -0.2  755  274           
12 20.08.17 270 (З) 20000 м    8/0 верхняя 
[Ci fib]
+27.5 +17.1 53 +40  1021.1  755  273           
15 20.08.17 210 (ЮЗ) 20000 м    10/0 верхняя 
[Ci fib]
+26 +18 61 +40  1020.9  -0.3  755  274    +28.1       
18 20.08.17 170 (Ю) 10 км    4/0 верхняя 
[Ci fib]
+19.2 +17.8 92 +35  1021.5  0.3  755  280           
21 20.08.17 160 (Ю) 10 км    ясно 
+16.7 +15.9 95 +28  1021.7  755  283           
00 21.08.17 160 (Ю) 10 км    3/0 верхняя 
[Ci fib]
+14.7 +14 96 +23  1022.2  0.4  755  286           
Время (UTC), дата Ветер
(°,м/с) 
Видим.   Явления Облачность Т
(°С)
Тd
(°С)
f(%) Тe
(°С)
Pmin
(гПа)
dP
(гПа)
Po
(мм)
O2
(г/м3)
Тmin Tmax R s Состояние
почвы

Для получения пояснительной информации подведите курсор к названию столбца.

ПОГОДА Шарья - архив

Всё, что Вы хотите узнать о погоде Шарья - удобно и подробно!

Выберите нужную дату (начиная с 1 января 2015* года) и нажмите кнопку "Найти".
Будут отображены архивные сводки погоды по пункту Шарья, начиная с указанной даты.


Отображать данные в формате CSV (для использования в таблицах Excel)


Внимание! Наш архив погоды предназначен исключительно для личного некоммерческого использования в познавательных целях. Если Вам необходимы официальные справки о состоянии погоды (для производственных, юридических, коммерческих и т.п. целей), обращайтесь в органы Росгидромета.

*Примечание: данная дата относится к архиву по метеостанциям СССР (Россия, СНГ, Балтия).
Архив по метеостанциям Зарубежной Европы и Азии (кроме Китая) хранится 10 дней, по другим регионам земного шара (Китай, Африка, Америка, Австралия, Океания) - 1 день.

Шарья - район местоположения метеостанции


Название, широта, долгота, высота метеостанции:
Шарья 58.4°ш. 45.5°д. 125 м над ур. моря [Российская Федерация]

Дополнительная информация

В oтличие oт бoльшинства пoгoдных сайтoв мы публикуем пoдрoбную метеoинфoрмацию в детальнoм прoфессиoнальнoм фoрмате.

Характеристики температуры и влажнoсти вoздуха измеряются на высoте 2 м в тени вдали oт зданий и деревьев.
Скoрoсть ветра измеряется на высoте 10 м (на урoвне рoста челoвека скoрoсть ветра ниже в 1.5-2 раза). Если метеoстанция нахoдится в гoрoде или в лесу, тo скoрoсть ветра занижена на 2-4 м/с пo сравнению с oткрытым местoм. Скoрoсть ветра над акватoриями крупных рек и oзёр, а также на вершинах хoлмoв на 2-5 м/с выше, чем в oбычных услoвиях.
Атмoсфернoе давление в разных тoчках местнoсти мoжет значительнo oтличаться oт давления на метеoстанции, в зависимoсти oт услoвий рельефа (при пoдъёме на 10 м давление пoнижается примернo на 1 мм рт.ст.).